Location: Azul
(36.7830°S, 59.8500°W)
Time: 22:44:32
(UTC-03:00)

FO-29 - Pass Details

Date: 28 October 2021
Orbit: 799 x 1322 km, 98.5° (Epoch: 28 November)

Event Time Altitude Azimuth Distance (km) Brightness Sun altitude
Rises 20:28:21 0° 147° (SSE) 4,210 12.7 -11.9°
Reaches altitude 10° 20:32:27 10° 125° (SE) 3,303 12.0 -12.6°
Maximum altitude 20:36:47 16° 91° (E) 2,918 11.5 -13.4°
Enters shadow 20:37:58 15° 80° (E) 2,957 11.4 -13.6°
